Wind_Gust
23 22 21 20 20 21 20 18 18 17 17 17 17 16 15 15 16 16 14 14 15 15 14 14 13 13 12 12 12 12 11 10 8 10 9 10 8 9 8 10 12 10 11 9 7 8 9 9 7 6 5 8 7 6 8 8 9 9 9 11 11 6 10 9 9 7 5 4 5 6 7 5 8 7 11 11 12 11 9 6 8 9 10 11 13
24 23 21 21 22 21 20 18 19 17 18 17 17 17 16 16 16 16 17 15 16 16 15 13 12 12 12 11 11 11 10 10 9 10 11 11 9 8 10 11 11 10 10 10 8 8 8 9 6 6 6 9 7 8 8 9 10 10 8 12 10 6 3 9 6 5 4 8 10 7 7 5 6 5 9 11 12 11 13 13 10 7 10 11 12
23 22 22 21 21 21 21 20 19 19 19 18 17 17 16 15 16 18 17 16 13 15 15 14 13 12 11 11 11 11 11 11 10 11 12 13 12 9 10 11 12 12 12 11 10 9 9 9 8 7 7 9 7 8 9 10 10 13 10 9 11 7 5 7 9 5 6 5 3 6 7 8 5 6 9 7 7 5 9 12 12 11 9 8 11
22 22 21 21 20 20 22 20 21 20 20 19 19 18 18 16 16 17 16 15 16 12 13 14 13 13 13 12 12 12 12 11 11 11 13 13 13 12 10 10 10 10 12 11 10 10 10 10 8 8 8 10 7 10 9 10 11 11 10 7 10 8 5 6 5 8 4 6 5 5 6 6 6 4 8 9 10 10 6 10 11 11 8 10 9
23 23 22 22 22 22 21 21 22 22 21 19 19 19 19 18 16 17 17 16 14 14 12 11 13 14 15 14 13 13 13 13 13 11 10 10 11 11 10 10 10 10 10 11 11 10 10 10 9 8 9 11 6 9 9 9 8 11 9 6 10 8 8 8 7 7 8 6 4 4 4 4 5 5 5 12 14 12 6 7 12 14 15 9 9
24 23 23 23 23 22 22 20 22 22 21 19 20 20 20 19 17 15 17 17 14 14 15 14 15 15 13 14 13 13 12 12 13 13 11 10 10 10 10 10 9 10 9 9 10 9 9 9 8 8 9 11 8 7 8 8 8 9 8 7 8 8 9 6 8 8 10 5 3 6 6 9 8 6 5 8 9 13 16 17 11 9 17 21 17
25 25 23 23 22 23 23 22 22 21 20 19 19 20 20 19 19 18 16 16 16 15 14 15 13 14 13 12 13 13 13 12 12 11 11 10 11 11 10 9 9 9 8 9 9 8 8 8 8 8 10 10 10 10 9 8 10 7 7 8 5 9 9 6 7 9 7 6 4 3 4 3 3 6 7 6 4 3 8 17 21 17 13 12 20
24 24 24 24 23 23 23 20 20 20 18 18 20 20 20 20 19 17 16 17 17 17 17 16 12 12 13 13 12 12 12 11 10 10 11 12 12 11 11 11 11 9 8 7 7 8 8 8 8 8 10 10 10 9 10 10 8 7 4 7 8 9 8 7 8 9 8 7 8 4 4 3 10 5 7 7 11 8 6 5 11 17 19 18 12
25 25 24 24 23 22 21 20 19 19 19 20 20 20 20 19 18 18 18 18 16 16 14 14 14 12 11 12 11 11 13 13 13 13 13 11 12 12 11 11 11 10 8 8 8 9 8 8 8 7 9 11 11 10 10 11 11 9 4 7 8 10 8 7 9 9 7 8 7 4 6 8 6 7 11 6 7 9 11 5 10 12 12 15 19
26 25 25 24 21 21 22 19 20 20 20 21 21 20 20 19 19 18 19 19 17 15 14 13 14 15 14 12 11 12 12 11 12 15 13 14 12 12 11 11 10 10 11 11 8 8 9 8 9 15 14 14 11 10 9 8 9 11 12 10 10 11 10 10 8 7 8 8 6 5 7 8 9 5 4 6 6 7 9 8 11 13 12 13 15
25 25 25 22 22 21 21 21 21 22 21 20 19 20 19 19 19 18 18 17 17 16 16 15 15 14 15 14 13 12 12 12 14 16 15 15 13 12 12 11 9 11 12 12 11 9 6 6 6 10 11 10 10 10 9 11 11 11 10 10 11 14 12 10 8 8 6 6 6 6 4 7 11 6 5 9 7 6 7 8 9 10 9 10 16
26 25 24 23 22 23 22 22 22 22 21 21 21 20 19 19 19 18 18 17 16 15 16 16 15 14 14 13 14 13 12 11 16 17 16 16 13 14 12 12 12 12 12 12 11 11 10 9 6 8 9 13 16 16 17 19 18 15 13 10 9 5 6 8 8 7 7 7 6 5 5 6 8 8 6 3 8 9 9 8 7 5 9 9 12
25 24 23 24 24 23 22 23 22 22 22 21 19 19 20 20 19 18 18 17 15 16 16 15 15 13 14 15 14 12 11 12 17 18 17 18 18 15 12 12 14 12 13 13 13 12 11 13 12 12 15 20 19 19 20 18 15 16 14 11 8 7 5 6 5 6 10 7 6 6 9 6 5 8 5 5 6 9 9 11 9 7 6 8 11
25 24 24 24 24 24 24 24 23 22 20 20 21 20 20 21 19 18 17 15 16 15 14 15 13 14 15 15 14 12 13 13 19 19 19 19 17 14 12 13 13 14 16 16 16 17 18 17 16 16 16 17 18 18 15 14 13 10 7 6 7 6 6 8 9 8 9 9 7 7 7 9 9 7 11 3 7 12 10 11 7 7 10 11 11
24 23 24 23 24 24 25 24 24 22 21 20 20 21 21 18 18 17 18 19 19 19 18 15 14 14 13 14 14 15 15 16 19 20 20 19 18 14 13 12 13 14 16 18 17 18 17 19 21 20 16 16 17 17 14 12 10 9 7 6 6 5 6 7 10 11 11 8 10 12 12 9 10 11 11 9 8 11 9 11 8 7 11 11 10
24 23 23 24 25 25 25 24 24 23 22 22 21 21 20 21 20 17 16 15 15 15 13 14 15 14 13 15 15 16 13 18 19 20 20 19 19 14 14 14 16 16 15 15 16 17 16 17 17 17 17 16 15 16 12 10 9 8 6 5 4 5 5 6 8 10 11 11 11 12 12 11 9 11 13 14 12 9 6 5 4 4 5 9 11
23 24 24 24 25 26 26 25 24 24 24 24 23 22 21 19 17 18 18 17 17 16 16 16 16 16 16 16 18 16 12 15 19 20 20 20 16 14 14 14 14 15 15 13 13 12 13 14 15 16 15 14 14 14 12 10 8 8 6 5 5 4 6 5 5 9 12 11 11 12 12 14 15 14 17 18 15 7 5 5 8 5 9 11 12
23 23 25 25 25 26 26 26 25 24 24 26 24 22 21 20 20 19 20 19 18 17 16 15 14 16 19 19 20 16 12 14 20 20 20 21 18 17 15 15 13 14 13 12 11 12 14 19 16 14 13 11 11 13 14 13 10 9 8 7 6 5 6 4 4 3 4 7 10 11 12 13 13 14 15 14 9 10 10 8 6 5 9 7 10
25 25 24 24 24 25 26 26 27 27 25 24 25 24 22 22 20 19 18 18 18 17 16 17 14 14 16 15 12 16 14 14 18 20 22 21 20 15 16 14 15 13 13 13 10 11 14 17 18 14 11 11 13 14 16 14 11 11 11 9 9 9 11 6 5 4 5 6 3 5 8 9 10 9 11 12 11 12 11 9 5 5 7 10 8
24 22 22 23 24 25 25 26 26 28 28 26 22 23 21 19 18 19 16 17 18 16 16 16 17 15 11 12 14 15 17 15 18 20 22 22 20 18 14 15 16 15 13 15 13 11 13 13 13 14 14 14 14 16 16 16 12 10 9 10 9 12 10 6 6 5 2 2 7 6 8 9 8 6 8 9 7 7 9 9 8 8 7 7 8
22 23 23 22 23 26 27 29 27 24 25 26 23 20 19 21 20 19 19 16 15 15 16 14 13 12 12 13 14 14 18 20 18 20 21 23 21 18 16 18 16 16 15 13 13 14 13 14 11 12 15 14 15 16 15 16 13 11 11 12 15 8 9 7 7 6 4 4 4 6 7 8 7 6 7 8 8 6 6 7 8 10 9 7 8
23 22 25 25 24 25 25 21 25 25 19 17 18 17 15 17 20 21 18 17 18 18 15 13 13 12 10 12 13 15 14 20 21 19 21 22 21 21 17 16 16 15 13 12 12 12 15 15 13 12 15 15 15 16 17 16 16 12 14 11 9 12 13 7 6 5 3 3 4 6 7 8 8 9 10 10 8 8 7 7 9 9 9 9 7
23 23 24 23 22 24 22 22 22 20 19 20 21 19 17 17 16 16 18 17 16 15 14 13 13 12 10 8 9 11 14 15 17 21 18 20 21 20 17 13 11 14 17 16 16 18 15 12 11 11 16 17 16 17 17 18 13 13 12 11 12 11 7 6 5 5 3 3 3 8 7 5 6 9 10 12 10 7 9 8 7 6 6 7 8
23 23 22 23 22 20 21 21 20 17 19 20 19 19 18 17 17 17 16 17 16 14 12 12 12 13 14 11 8 9 11 14 12 15 18 19 17 17 14 12 14 14 14 15 15 14 13 12 11 11 14 15 16 16 16 15 15 14 12 12 11 8 5 5 4 5 4 3 5 7 9 6 6 8 11 11 10 10 11 9 10 6 5 8 8
22 22 21 20 20 19 19 19 18 17 18 20 20 18 16 16 16 11 15 14 15 17 15 15 17 16 13 14 12 11 11 11 11 12 14 15 16 16 13 11 13 11 12 8 7 12 10 12 11 11 12 13 15 14 11 13 13 11 11 11 9 7 7 8 7 5 5 8 8 8 9 10 10 10 11 10 11 9 8 10 7 6 5 6 7
21 21 20 19 18 18 18 15 16 17 17 16 18 19 20 18 18 19 20 19 17 15 15 15 13 12 12 11 13 13 11 10 11 10 9 10 9 12 13 11 11 11 9 11 10 10 9 8 9 8 8 9 11 9 10 13 12 10 9 9 8 9 8 8 5 8 10 9 7 9 11 7 7 8 7 7 9 13 8 6 9 12 10 12 16
21 20 19 19 20 22 23 19 16 16 14 12 11 12 14 15 16 17 19 18 15 13 13 13 12 12 16 16 14 12 11 11 11 11 11 11 11 11 10 8 6 6 6 7 8 9 9 8 7 6 4 9 12 9 9 7 8 7 8 9 9 9 9 9 11 10 9 9 9 10 10 9 7 8 11 10 10 13 3 5 7 11 6 6 5
23 20 19 20 21 21 19 16 19 17 15 16 16 14 13 16 19 20 20 19 19 16 17 16 18 20 18 14 13 11 11 11 12 15 16 14 12 10 11 11 12 12 12 9 8 7 7 5 7 6 6 6 6 5 7 8 9 8 9 9 10 8 7 5 5 6 8 8 9 8 9 7 9 10 9 11 12 13 5 5 5 8 5 4 9
20 19 19 19 18 15 17 18 18 18 15 12 11 15 20 21 20 16 13 19 23 25 24 22 21 17 16 17 17 15 11 14 20 14 16 12 17 16 14 14 14 13 12 9 8 5 6 5 4 4 4 4 5 8 9 9 9 9 8 9 8 8 7 8 11 12 11 8 10 11 12 9 10 9 9 10 13 13 4 5 6 8 5 2 5
19 19 20 20 19 19 16 15 15 16 17 16 15 10 10 8 7 15 15 8 7 8 9 18 19 17 15 15 17 22 23 25 15 15 13 14 15 17 16 15 14 15 11 14 11 8 8 9 7 6 7 7 8 9 11 11 10 10 10 7 9 10 10 9 11 12 9 10 10 9 12 9 10 11 9 11 13 11 6 6 7 3 4 4 8
18 17 17 18 19 19 19 17 16 16 16 16 14 14 11 10 10 9 8 8 11 12 13 15 16 13 17 16 11 8 5 8 13 16 16 15 17 17 15 15 15 14 13 12 7 12 11 11 10 8 9 9 8 9 8 9 9 9 10 9 10 11 9 10 12 9 10 9 10 10 10 9 12 11 10 12 12 13 9 4 5 4 6 5 6
21 18 17 16 18 17 18 18 16 16 14 13 14 14 14 13 7 10 8 12 11 13 15 15 16 16 13 11 11 9 8 11 14 15 16 16 17 17 17 16 16 15 16 16 14 12 11 12 12 11 10 10 10 9 10 11 10 10 9 7 12 11 11 12 12 10 10 9 10 10 10 11 12 13 12 12 9 10 10 10 8 6 6 5 8
23 18 17 17 16 16 16 16 15 16 16 16 14 14 16 16 18 13 7 8 9 11 12 13 14 14 13 12 14 13 12 12 15 15 16 17 17 17 17 16 15 15 14 11 11 11 11 12 13 12 12 13 12 12 12 11 12 11 11 11 12 12 11 13 6 8 9 12 9 10 11 11 11 11 9 9 8 10 8 9 9 4 5 7 9
22 24 20 20 19 16 16 16 17 17 15 15 15 15 14 13 13 14 14 9 7 8 8 9 12 14 14 16 15 15 14 14 15 16 17 18 18 18 13 9 10 14 16 16 13 14 12 13 13 13 13 12 12 12 12 12 12 12 11 12 12 11 10 7 7 11 10 10 10 11 10 10 9 10 11 9 9 9 9 9 7 5 7 8 10
14 12 17 16 18 18 16 15 15 15 15 15 15 13 12 10 11 14 16 16 15 15 13 7 4 6 13 11 13 13 13 14 15 17 17 17 16 16 15 14 9 6 9 9 13 14 14 15 15 14 13 14 15 13 14 13 13 13 13 12 11 10 9 9 10 10 11 10 9 11 11 11 11 11 11 11 9 8 10 10 9 8 8 9 8
16 17 16 15 14 13 13 14 14 14 15 13 12 12 11 12 12 12 11 11 13 12 8 6 5 3 6 8 10 12 13 14 16 17 18 15 17 19 14 10 11 12 14 14 15 15 13 13 13 14 13 14 12 13 14 13 13 13 12 11 11 11 11 10 10 9 9 9 10 9 8 9 10 10 9 7 9 11 10 9 9 8 8 10 8
17 15 14 13 14 14 13 13 13 13 10 12 13 13 12 12 12 13 12 12 11 9 9 8 8 6 4 3 4 6 7 8 8 9 10 14 20 19 16 18 17 16 14 14 13 12 13 15 14 13 13 14 13 12 11 12 12 12 10 13 13 12 12 12 11 8 9 9 9 8 8 10 9 9 11 12 11 9 8 8 7 8 8 9 5
16 17 15 14 14 14 14 13 14 12 14 12 11 14 14 13 14 12 12 12 13 13 12 10 7 12 13 8 7 6 9 10 12 10 8 9 10 10 10 11 12 14 16 14 15 15 17 15 13 15 14 13 12 11 11 12 12 13 13 12 11 12 11 13 10 10 7 8 9 9 10 10 9 9 9 11 10 9 9 8 8 9 8 7 6
12 12 14 14 10 15 14 14 14 14 12 12 11 12 12 13 12 10 10 10 11 10 9 10 11 12 10 10 9 9 12 8 9 9 10 10 11 11 11 10 11 12 12 12 10 11 12 13 12 12 11 11 12 11 12 12 10 11 12 11 11 10 10 10 9 9 8 10 10 10 10 10 9 8 9 10 10 9 9 8 7 8 9 10 10
15 14 13 14 13 14 14 13 13 13 12 14 12 11 12 12 13 13 12 12 12 11 11 11 11 10 9 11 11 12 11 12 11 11 10 11 12 12 11 12 12 13 13 11 11 12 12 13 11 10 11 11 11 11 10 11 11 11 10 10 10 11 11 9 10 11 11 10 9 9 10 10 10 8 7 9 11 9 8 9 9 8 8 9 11
14 15 10 10 12 14 12 13 12 12 11 12 13 12 12 12 11 10 11 11 11 11 11 12 12 11 12 15 14 16 15 13 11 10 12 13 13 12 13 12 12 12 11 11 11 11 11 11 10 10 10 10 11 11 10 10 10 10 10 10 9 10 11 9 10 10 10 9 9 10 10 9 9 8 10 12 8 9 9 7 8 9 9 9 9
16 15 14 13 14 14 13 12 11 11 11 11 12 12 10 10 10 9 11 11 10 11 10 10 10 10 11 16 16 15 11 8 8 9 8 8 9 11 11 12 12 12 12 12 12 12 12 10 10 10 10 10 10 10 9 10 9 10 10 9 11 9 10 11 10 10 10 10 10 10 11 11 11 12 13 7 10 8 8 8 10 9 9 10 9
14 14 14 13 13 13 14 13 12 13 11 11 10 7 9 11 10 10 10 9 10 10 10 10 8 7 9 11 15 14 12 8 6 10 11 11 11 10 12 14 14 13 12 11 10 10 10 10 10 10 11 12 11 11 12 13 11 11 9 10 11 11 12 12 10 10 10 10 11 11 12 12 13 13 12 11 8 8 8 9 9 9 9 9 9
14 14 13 13 13 12 11 12 11 10 11 9 10 9 10 9 9 9 10 10 10 11 12 11 8 9 8 9 11 12 13 12 11 12 11 10 11 12 14 13 12 10 10 10 10 8 9 10 10 10 9 10 11 9 11 11 11 11 12 12 11 11 11 12 12 12 12 13 13 13 14 14 13 12 10 8 7 8 10 9 10 11 10 10 9
15 15 14 13 12 12 11 10 12 12 11 10 9 9 9 10 10 9 10 10 9 10 10 8 6 9 9 9 12 13 13 12 10 7 8 10 11 13 12 11 11 11 11 10 9 8 9 10 11 10 11 12 11 11 12 12 12 13 13 12 12 12 13 13 13 13 11 10 12 11 11 11 11 10 9 9 7 8 10 11 11 7 9 10 8
13 13 14 13 12 10 11 10 9 11 11 11 11 10 8 9 9 9 9 9 9 9 9 8 8 8 10 11 11 11 12 10 11 11 9 9 11 11 11 11 10 11 11 12 10 10 10 10 11 11 12 12 12 11 11 10 10 11 10 11 13 14 13 11 8 8 9 10 12 11 10 8 8 8 8 9 9 9 10 10 8 8 10 10 10
13 12 13 12 13 11 10 10 10 9 9 9 9 10 10 10 10 9 7 9 10 9 9 9 8 9 9 10 11 11 11 11 12 11 12 12 11 10 10 10 10 10 11 11 10 11 11 12 11 11 11 11 10 11 11 11 10 10 10 11 11 11 10 9 10 11 11 11 9 9 9 9 10 9 10 10 8 10 9 11 11 10 9 10 11
13 12 12 11 12 12 11 11 11 9 10 11 11 11 11 11 10 9 9 9 9 9 9 6 8 8 9 9 10 10 10 12 11 11 10 10 10 9 9 9 10 11 10 10 11 11 11 12 11 11 12 12 11 12 12 11 9 10 9 10 10 11 13 11 10 9 9 9 9 11 11 11 10 9 9 9 9 9 9 12 10 9 9 10 9
13 13 12 13 12 13 13 13 12 13 13 12 12 11 10 11 10 10 10 10 11 10 10 10 9 9 9 10 10 10 9 8 9 10 11 11 9 9 10 10 10 11 10 12 12 11 11 11 11 11 12 12 12 12 12 11 11 10 10 10 12 13 14 13 10 13 13 12 9 8 7 8 10 11 9 8 9 8 9 9 9 10 10 9 9
13 13 13 12 12 11 11 11 10 10 9 10 11 11 10 10 10 10 11 11 10 9 9 9 9 10 10 9 9 9 9 10 11 11 11 11 10 9 10 11 11 11 11 12 12 11 10 10 10 10 11 11 11 11 11 11 11 12 10 13 12 13 13 14 14 14 14 9 11 11 12 11 11 10 9 8 8 8 10 10 9 8 8 8 8
11 12 11 12 11 11 11 11 11 10 10 10 10 10 11 11 10 11 11 12 12 12 10 10 9 9 9 10 9 10 10 11 11 11 10 10 10 9 10 10 11 10 10 10 10 10 9 9 10 11 10 11 11 11 11 11 11 11 11 12 13 13 14 13 13 11 14 10 9 10 11 12 10 9 8 8 8 9 11 10 9 8 8 8 7
Wind_Speed
14 12 12 12 12 13 12 11 11 10 10 10 10 10 9 9 9 8 7 7 8 8 8 8 8 7 7 7 7 7 5 5 4 5 5 5 4 5 4 5 6 5 5 4 3 5 6 6 4 4 4 5 4 4 4 3 3 3 3 5 6 3 6 5 6 4 1 0 1 1 2 1 3 2 3 4 5 5 4 4 4 4 4 5 5
14 13 12 12 14 13 13 11 11 10 11 11 10 10 9 9 8 8 9 8 8 9 9 7 7 8 7 7 6 6 6 6 5 5 6 6 5 4 6 6 6 5 5 5 4 4 5 6 4 3 2 5 4 4 5 4 4 4 3 5 5 4 2 4 3 3 2 1 2 2 2 1 3 1 2 4 4 4 5 5 4 3 4 5 5
13 12 12 13 13 13 13 12 11 12 12 11 11 10 9 9 8 9 8 8 7 8 8 8 8 7 7 7 7 6 7 7 6 6 7 7 7 5 5 6 7 7 6 6 5 4 5 5 4 4 3 5 4 4 4 4 3 5 3 3 5 4 3 4 4 3 4 1 1 1 2 2 1 2 2 1 1 1 4 5 5 5 4 4 5
13 12 12 12 13 13 13 12 13 12 12 11 12 10 9 9 8 9 8 8 9 6 7 8 8 8 8 7 8 7 7 6 6 6 7 7 7 7 5 5 6 6 7 6 6 6 6 6 5 5 4 6 4 5 3 4 5 5 4 3 5 4 3 4 3 4 2 3 1 0 1 1 1 1 2 1 3 4 3 5 3 3 5 5 4
13 13 13 13 13 13 13 13 13 13 13 11 12 11 10 9 8 9 8 8 7 8 6 7 8 8 9 9 8 7 8 7 7 6 5 5 7 7 6 6 6 6 6 6 6 6 6 6 6 5 5 7 4 5 4 5 4 5 5 3 5 3 3 4 3 3 5 3 1 1 1 1 2 1 2 5 4 2 2 4 6 5 4 4 4
14 14 13 14 13 14 13 12 14 14 13 12 12 11 10 10 9 8 9 9 8 8 9 7 8 8 7 8 8 8 7 7 7 7 7 6 6 6 6 6 5 5 5 5 5 4 5 5 5 5 6 7 5 4 4 5 4 5 5 4 4 4 5 3 4 5 6 3 2 1 2 2 3 1 1 3 4 5 6 5 5 4 6 8 7
15 14 14 14 13 14 13 13 12 12 12 11 11 11 10 10 10 10 9 9 10 9 8 8 6 8 7 8 8 8 7 6 7 7 7 6 6 6 6 5 5 5 5 5 4 4 4 5 5 5 6 6 6 6 6 4 5 4 4 5 3 5 5 3 4 5 4 4 1 0 1 1 1 3 3 3 1 1 4 7 7 6 6 7 8
14 15 14 13 13 14 13 11 11 11 11 10 11 11 10 10 10 9 9 10 10 10 10 9 7 7 7 8 7 7 7 7 6 6 7 7 6 6 6 6 5 4 4 4 4 4 4 4 5 5 6 6 6 5 6 6 4 4 2 4 4 5 5 4 5 5 5 3 2 1 0 0 4 2 4 3 5 3 2 2 6 7 8 7 4
15 15 14 14 13 13 12 11 10 11 11 11 11 11 11 11 10 10 10 10 9 9 8 8 8 7 6 7 7 6 7 8 7 7 7 6 6 6 6 6 6 5 4 3 3 3 4 4 4 4 5 7 8 7 6 7 6 5 2 3 4 5 4 4 5 5 4 4 3 1 2 2 1 2 5 3 3 3 3 1 3 5 5 7 9
15 15 15 14 12 12 13 11 11 11 12 12 12 11 11 10 11 11 11 11 10 9 8 8 8 9 8 7 6 7 7 6 8 12 10 8 6 5 5 5 5 5 5 4 3 2 4 4 4 9 9 9 8 8 8 6 5 6 7 6 6 6 5 5 5 4 4 4 2 2 3 1 1 1 2 3 3 3 4 4 5 6 5 6 6
15 15 15 13 13 12 12 12 12 13 12 11 11 12 12 10 10 11 10 10 11 10 9 9 8 8 9 8 8 7 6 6 12 13 12 12 8 6 7 6 5 7 6 7 6 4 3 3 4 6 7 7 6 8 8 8 7 7 8 8 7 8 6 4 3 3 3 2 3 2 2 1 2 2 3 5 3 3 3 3 4 4 3 4 5
15 15 14 13 13 14 12 13 13 13 12 12 12 12 11 11 11 11 10 10 9 9 10 10 9 8 7 7 8 7 6 9 13 13 13 13 11 9 7 7 6 6 7 7 6 6 5 5 3 4 5 8 9 9 12 16 16 15 12 10 9 6 5 6 4 2 2 4 4 3 3 2 2 1 3 1 4 5 4 3 2 2 4 3 3
15 14 13 14 14 13 13 13 13 13 13 12 11 11 12 12 11 10 11 10 9 10 10 9 8 7 8 8 7 7 6 10 13 14 14 15 15 11 7 7 8 7 8 8 8 7 7 8 8 7 7 13 10 8 8 9 11 13 11 9 7 7 5 4 4 3 5 4 3 3 4 3 2 3 3 1 1 3 3 4 2 2 2 4 5
14 14 13 14 14 13 13 14 14 13 12 12 12 12 12 12 11 10 9 9 9 9 9 10 8 8 8 8 8 7 7 10 15 16 16 15 14 11 7 8 8 8 9 10 9 10 11 10 8 7 7 7 7 7 5 5 5 4 3 4 4 5 6 6 6 6 7 5 4 3 4 5 4 3 2 1 2 3 2 4 3 3 4 4 5
14 14 14 13 13 14 14 14 14 13 12 12 12 13 13 11 11 10 10 11 11 10 10 9 8 8 7 7 7 8 7 13 15 16 15 15 14 11 7 6 7 8 9 10 10 9 7 6 7 7 7 8 7 9 8 7 6 5 4 3 2 2 2 3 5 6 6 5 5 5 4 5 4 5 4 3 5 5 3 5 4 3 5 5 5
14 13 14 14 15 15 15 14 13 13 13 12 13 12 12 12 12 9 9 8 8 8 7 8 9 9 8 8 7 8 7 14 15 16 16 15 14 8 7 8 8 9 9 7 7 7 7 6 6 7 8 8 10 12 8 6 6 5 4 2 1 0 2 3 5 7 7 7 6 6 5 6 6 5 5 4 3 2 2 1 1 1 2 4 4
14 14 14 14 15 15 15 15 14 14 14 14 13 13 12 11 10 9 10 9 9 9 9 9 8 9 9 9 10 9 6 11 16 16 16 16 12 8 8 8 8 9 8 7 7 7 7 6 7 7 6 7 7 10 8 8 4 4 4 3 2 1 2 2 4 7 11 9 8 8 7 7 8 10 10 10 6 3 2 1 4 3 1 4 4
13 14 14 14 15 15 15 15 14 14 14 15 14 12 12 11 11 10 11 10 10 9 9 8 7 8 10 11 11 9 7 10 16 16 16 17 14 10 8 8 8 8 7 5 6 6 7 13 9 6 5 4 5 9 8 6 4 4 4 4 2 2 3 2 2 1 3 6 6 7 8 9 9 10 11 9 6 6 5 3 3 3 1 1 2
13 14 14 14 14 14 14 15 15 14 14 14 14 15 13 12 11 10 10 10 10 9 9 9 8 8 9 9 9 9 8 9 15 16 17 17 14 8 8 7 8 6 7 6 4 6 6 9 11 8 6 5 9 10 10 7 4 5 6 5 4 4 6 4 4 2 1 1 1 1 3 4 4 4 4 4 6 8 6 5 3 3 3 3 2
14 12 12 13 13 13 13 15 15 15 14 12 11 12 11 10 10 10 9 9 9 9 9 9 10 8 7 7 8 9 9 8 12 17 17 17 17 10 7 8 8 8 7 7 7 5 6 5 6 10 11 10 11 11 11 11 7 5 4 5 4 6 5 3 3 2 2 1 2 2 3 3 4 3 3 2 3 4 6 5 5 5 4 4 2
12 12 12 12 13 14 12 13 14 13 14 15 13 11 10 11 11 11 10 9 8 8 10 8 7 7 7 7 7 7 8 10 11 16 17 19 18 14 9 10 8 8 8 7 7 8 7 7 6 8 12 12 12 12 12 13 11 6 6 6 8 4 6 5 4 5 2 1 1 2 4 4 3 2 2 3 3 2 3 4 5 6 6 4 3
12 12 13 13 12 11 11 11 14 14 11 9 9 9 8 10 11 12 9 9 10 10 9 8 7 7 6 6 6 6 6 11 11 15 17 18 18 18 10 9 9 8 7 7 7 7 8 8 7 8 13 13 13 12 13 13 14 7 8 10 6 8 7 4 3 3 1 1 2 4 3 3 4 4 5 4 3 3 3 4 5 6 6 5 5
12 13 13 13 11 11 10 13 10 7 8 11 13 11 9 9 9 8 10 10 10 9 8 7 7 7 6 5 4 5 5 7 12 12 15 16 17 16 14 10 10 8 9 9 9 10 8 7 7 10 14 14 13 13 12 13 11 8 11 9 8 9 6 3 3 3 2 2 2 5 5 3 3 3 4 4 5 3 4 4 4 3 3 4 5
12 12 11 11 10 10 10 9 9 10 11 9 10 10 10 9 9 8 9 9 8 7 6 7 7 7 7 6 4 4 4 5 8 12 13 16 14 14 12 11 12 9 8 8 8 8 7 7 7 10 12 13 13 12 12 12 9 12 10 9 9 7 3 3 3 3 2 2 3 4 6 3 3 5 5 4 4 4 5 5 6 3 3 5 5
12 11 10 10 10 9 8 9 9 8 9 11 10 9 8 8 7 5 6 4 5 7 7 7 8 7 7 7 5 5 6 6 7 9 12 13 14 13 11 10 11 10 7 4 5 7 8 11 10 10 11 11 11 10 8 9 10 8 8 8 7 4 4 5 4 3 3 5 5 5 5 6 5 5 4 4 4 3 3 5 4 3 3 4 4
12 13 12 11 10 10 10 9 10 11 10 9 10 10 11 10 10 10 11 11 10 8 8 7 7 7 7 6 7 7 6 6 6 6 7 8 7 8 8 7 8 9 7 5 6 7 7 7 8 7 7 7 6 5 6 7 9 8 7 7 5 5 5 5 3 5 6 5 4 6 6 4 4 5 4 3 4 6 2 2 5 6 3 5 7
11 10 11 11 11 12 13 10 9 9 9 7 6 6 7 8 9 9 10 10 8 7 7 8 7 7 8 7 7 7 7 6 6 6 6 6 6 5 5 4 4 5 3 3 5 5 6 6 5 5 4 7 7 5 5 4 4 4 5 5 5 5 5 5 6 6 6 5 5 5 6 6 4 4 5 3 5 5 2 2 3 6 3 1 1
11 10 12 11 10 11 10 12 12 9 9 9 8 7 6 8 10 10 10 10 10 9 8 8 9 10 9 7 7 6 5 6 7 8 8 8 6 6 6 5 5 6 5 5 5 4 4 4 5 3 3 3 2 2 2 3 4 4 5 5 6 5 4 4 3 3 4 4 4 4 5 4 5 5 4 5 6 6 2 2 2 5 2 1 2
11 11 11 10 9 7 8 10 10 10 9 7 6 6 10 11 11 9 8 10 12 13 12 11 12 10 9 9 9 7 6 7 11 10 9 10 10 8 7 8 7 6 7 8 4 3 4 3 3 2 2 3 3 3 4 4 4 5 5 5 5 5 5 5 6 6 6 5 6 6 6 5 6 4 3 5 6 6 1 2 2 4 3 1 3
11 12 11 11 11 10 8 7 8 8 9 9 8 5 8 5 3 7 7 6 6 7 8 8 7 8 8 7 9 11 12 12 8 12 11 12 12 12 11 11 11 9 9 12 7 4 4 5 4 4 3 3 4 4 4 5 5 5 5 5 6 6 6 5 6 6 5 5 6 5 6 5 6 6 4 6 7 6 2 4 3 2 1 2 3
10 9 10 10 11 10 10 9 8 8 8 8 7 8 5 6 10 6 6 7 9 11 11 12 14 12 11 9 6 2 3 8 12 13 12 11 13 13 12 11 12 11 10 8 3 5 5 6 6 5 5 5 5 6 5 5 5 5 5 5 5 6 6 5 6 4 4 4 6 5 5 5 6 6 5 6 6 7 5 1 2 3 4 3 4
11 10 10 9 11 11 9 10 9 9 7 7 7 8 7 6 4 9 7 8 9 11 12 13 14 14 12 9 8 4 3 6 10 12 12 12 12 13 12 12 11 12 13 12 6 6 6 6 6 6 6 6 6 6 6 6 6 6 5 4 5 6 5 6 5 4 5 5 5 5 5 5 6 6 6 6 5 5 5 5 3 3 3 2 5
14 11 10 10 9 9 9 9 8 9 9 9 7 7 8 8 8 5 5 8 7 7 9 11 12 12 11 10 12 11 9 8 10 11 13 14 13 13 13 10 9 10 10 6 6 6 6 6 7 6 7 7 6 6 6 6 6 6 6 6 5 5 6 5 1 4 5 6 5 6 6 6 6 6 5 5 5 6 4 4 5 3 3 3 5
12 13 11 11 10 9 9 9 9 8 8 8 8 8 7 7 7 7 7 5 4 6 7 5 7 10 11 12 11 10 9 10 9 10 11 12 13 9 8 5 9 12 11 8 7 7 7 7 7 7 7 7 6 6 6 6 5 6 5 5 5 5 4 2 3 5 5 5 5 6 6 6 6 5 6 5 4 4 5 6 4 3 4 4 6
5 9 14 12 10 10 9 9 9 8 8 8 8 8 7 6 6 7 7 7 6 5 4 2 3 4 5 5 7 8 8 8 9 9 11 10 10 13 12 8 5 3 5 6 7 7 7 7 7 7 6 7 7 7 7 6 5 5 6 6 5 5 6 4 6 5 6 5 5 6 6 5 5 6 6 6 5 4 6 6 5 5 5 4 3
9 9 9 9 8 7 7 8 8 8 8 7 7 7 7 7 7 7 7 7 8 7 5 3 3 2 5 4 4 5 5 6 6 6 5 10 14 15 7 5 4 6 7 7 7 7 6 6 7 7 6 6 6 6 7 6 6 7 7 7 7 7 6 6 6 5 5 5 5 5 5 5 5 5 4 3 5 7 6 6 5 4 5 5 3
9 8 8 7 7 7 7 6 6 7 7 7 7 7 6 7 7 7 7 5 6 5 5 4 4 3 3 1 3 5 5 4 3 3 7 11 14 10 6 7 8 7 7 7 7 6 6 7 6 6 6 6 6 5 5 6 6 6 6 6 6 7 7 7 6 5 6 6 5 4 5 5 4 4 5 6 6 6 4 4 4 4 3 4 2
9 9 8 8 8 8 8 7 8 9 8 7 6 7 7 6 7 7 7 6 7 8 7 6 5 6 6 4 4 4 5 7 10 8 7 7 6 5 5 5 6 6 7 6 6 6 7 6 5 6 6 5 5 6 6 6 5 6 6 6 6 6 8 7 6 6 4 4 5 5 5 5 4 4 5 7 6 6 5 5 5 4 4 3 3
7 10 12 12 9 8 8 8 8 8 7 7 6 7 7 7 6 5 5 5 6 6 5 6 5 5 4 5 4 5 7 3 4 4 3 3 5 5 5 5 6 6 5 5 5 6 6 6 6 5 5 5 6 6 6 6 6 6 6 5 6 6 6 6 5 4 4 5 5 4 3 5 4 5 6 5 4 4 5 5 5 3 3 5 5
8 7 9 12 8 9 8 8 8 7 7 7 6 6 6 7 7 7 7 7 6 6 5 6 5 5 5 6 5 5 5 5 5 5 4 4 5 5 5 6 6 6 7 6 6 6 6 6 5 5 6 6 6 6 6 6 6 6 6 5 6 6 6 6 5 5 5 4 4 4 4 5 5 4 4 4 6 5 5 5 4 4 5 5 6
7 8 8 8 9 8 7 8 7 7 6 7 7 7 7 6 6 5 6 5 5 5 5 5 4 4 6 7 10 10 6 6 5 5 6 7 6 6 6 6 6 6 6 6 6 5 6 6 6 6 6 6 7 7 6 7 6 5 6 6 6 6 5 5 5 5 5 5 5 5 6 6 4 5 5 6 5 6 6 4 3 5 4 4 5
8 8 8 7 9 8 8 7 7 7 7 7 7 7 6 6 6 6 5 5 5 5 4 3 3 4 6 10 11 11 6 4 5 5 4 4 4 5 5 6 5 5 5 6 6 6 6 6 6 6 6 6 6 6 5 6 6 7 6 5 6 6 5 6 6 5 5 5 5 5 6 6 6 6 6 5 6 5 2 3 5 5 5 5 5
8 8 8 8 7 7 8 7 7 7 7 7 6 5 6 6 6 6 5 5 5 5 5 4 3 3 5 6 8 8 3 2 4 5 5 5 5 4 5 6 6 6 5 5 4 5 5 6 6 6 6 7 6 6 7 7 7 7 7 6 6 6 7 6 5 6 5 5 5 6 6 5 5 4 5 7 4 3 4 4 4 4 4 5 5
8 8 7 7 7 7 7 7 6 6 6 6 6 6 6 5 5 5 5 5 5 5 5 4 3 4 3 4 5 5 5 5 5 5 5 4 4 5 6 5 5 4 5 6 6 4 5 5 5 6 5 6 6 5 6 6 6 6 7 7 6 6 6 6 6 6 5 5 6 6 6 5 5 5 7 5 3 3 4 3 4 5 5 4 4
8 8 8 7 7 7 7 6 7 7 7 6 5 5 5 6 6 5 6 5 4 4 3 3 3 4 4 4 5 6 5 5 4 4 5 6 6 6 6 5 5 5 6 6 5 4 5 6 5 5 5 6 5 6 6 6 6 7 6 7 7 7 7 7 7 6 5 5 5 5 5 5 5 7 5 4 4 4 5 5 5 4 3 5 4
7 7 8 7 7 6 6 5 6 6 6 6 6 5 5 5 5 5 5 5 5 5 4 4 4 5 5 5 5 5 5 5 5 5 5 5 6 6 5 5 5 5 6 6 5 5 6 6 6 6 6 6 6 6 6 6 6 6 6 6 7 8 7 6 4 4 5 5 5 5 5 4 5 5 5 4 3 5 5 4 3 4 5 5 6
7 7 7 7 7 6 6 6 5 6 5 5 5 6 5 5 5 4 5 5 5 5 4 5 5 5 5 5 5 6 5 5 5 5 6 6 5 5 5 4 4 5 5 5 4 6 6 6 6 6 7 6 6 6 6 6 6 7 6 7 7 7 6 5 5 5 5 5 5 6 6 6 6 6 6 5 4 5 5 5 5 5 5 5 6
7 7 7 7 7 7 6 6 6 6 6 6 6 6 5 5 5 5 4 4 4 4 4 4 5 5 5 5 5 5 5 5 5 4 4 4 5 4 4 4 5 6 5 5 5 6 6 6 6 6 7 6 6 7 6 6 5 6 6 7 7 7 8 7 5 6 6 5 4 5 6 6 6 5 5 5 5 5 5 5 4 5 5 6 5
6 7 7 7 7 7 7 6 6 6 5 5 5 5 5 4 4 3 4 4 4 4 4 4 5 5 5 5 5 6 5 4 4 4 4 4 4 4 5 5 4 5 5 6 6 5 6 6 6 7 7 6 6 7 6 6 6 6 6 6 8 11 11 10 7 7 7 5 4 4 4 5 6 7 6 5 6 5 5 5 4 5 6 5 5
6 6 6 6 6 5 5 5 6 5 6 5 5 5 4 4 3 3 4 4 3 3 4 4 5 5 5 5 5 6 5 5 6 6 5 5 5 4 5 5 5 5 6 6 6 6 6 6 6 6 6 6 6 6 6 6 6 7 6 7 10 11 11 11 10 11 8 5 6 6 6 6 6 6 6 5 5 5 6 6 5 4 5 5 5
7 6 6 5 6 5 5 5 5 5 5 5 5 5 5 5 5 4 4 4 5 5 4 4 4 4 5 5 5 6 6 6 6 5 5 5 4 4 5 5 6 5 5 6 6 6 6 6 6 6 6 6 6 6 6 7 6 7 8 10 11 10 11 10 8 9 11 8 5 6 6 7 6 6 5 5 4 5 6 6 5 5 5 5 5
Wind_Direction
171 173 169 168 164 168 168 165 165 162 162 167 166 168 166 164 169 164 147 159 154 158 163 163 158 155 154 161 161 160 156 147 141 137 134 132 128 136 143 147 139 140 134 131 129 138 143 144 156 145 133 121 131 122 115 117 85 83 93 93 94 91 103 103 114 132 328 145 275 291 314 155 35 9 15 2 358 346 345 336 340 346 341 335 326
174 171 172 170 169 168 166 165 164 164 166 169 169 168 168 168 163 154 164 161 162 163 164 160 154 153 156 158 156 154 153 151 151 147 148 148 148 149 153 152 143 141 137 145 155 153 146 144 152 149 142 125 129 124 136 128 120 99 95 108 109 84 103 102 125 121 172 324 0 330 11 20 67 327 55 8 347 339 345 340 333 333 334 331 330
173 171 171 171 170 166 163 166 166 167 169 171 171 168 167 163 162 163 163 161 167 165 162 157 155 152 151 154 155 159 161 160 161 159 161 158 157 161 161 157 153 152 155 162 164 153 144 149 157 144 127 109 113 119 117 116 111 110 114 103 96 90 92 119 117 117 136 118 257 343 348 325 96 335 341 344 325 295 327 343 336 326 331 325 323
171 170 171 170 167 164 168 168 167 169 173 173 171 167 163 164 164 165 163 160 163 161 156 154 151 156 156 159 165 163 163 164 164 168 164 161 162 163 161 161 159 159 160 162 165 164 160 147 159 148 131 117 124 114 109 114 113 113 100 81 97 89 77 89 107 135 160 119 350 132 285 14 315 284 300 336 16 345 335 312 303 309 323 327 322
169 171 171 168 167 167 170 170 171 173 173 171 169 164 164 162 166 164 158 163 160 151 155 155 157 162 167 167 165 167 169 167 164 162 161 165 164 162 163 163 164 163 163 165 169 165 160 154 156 146 132 119 122 119 125 112 115 110 107 99 98 94 70 81 89 99 121 131 149 273 295 292 270 305 21 8 335 343 320 332 325 322 325 306 299
170 170 172 169 168 169 172 173 176 175 173 170 167 166 164 165 164 164 163 160 158 164 162 168 170 170 165 166 166 169 169 167 166 164 164 164 163 163 162 162 161 159 162 169 168 169 156 150 152 148 135 132 138 129 125 123 115 108 108 104 108 100 96 74 87 100 104 109 125 46 354 17 341 322 333 13 346 338 345 339 329 336 346 343 337
170 171 173 171 168 169 172 176 174 173 171 168 164 164 166 165 164 165 165 161 162 167 171 169 172 165 167 165 170 168 166 164 163 163 164 165 164 160 160 157 155 160 169 170 170 166 149 144 147 148 139 140 143 145 133 124 122 126 136 131 130 109 105 103 99 97 106 114 66 41 338 331 34 325 314 338 283 338 356 340 343 336 346 345 327
171 173 173 174 172 168 170 170 170 170 167 164 165 166 164 164 167 163 158 162 170 172 172 173 167 165 167 169 169 164 162 164 166 165 166 166 162 163 161 160 158 160 160 164 161 148 139 142 147 154 149 152 144 150 136 131 123 117 143 124 123 109 113 117 99 107 115 105 123 121 141 187 359 306 297 344 1 340 48 16 316 323 332 324 292
172 173 175 176 175 168 163 166 166 165 164 162 163 166 167 165 163 163 167 169 172 173 168 163 160 164 166 166 165 165 167 172 172 167 164 166 162 161 163 161 158 150 141 129 114 119 128 145 153 155 155 152 149 148 149 145 135 135 177 135 126 120 119 116 131 130 137 132 138 162 111 60 82 357 333 342 333 288 297 358 287 304 317 325 318
173 174 177 178 170 167 163 162 166 165 165 167 167 165 166 164 163 167 173 171 170 166 163 166 168 169 167 169 167 169 175 175 176 170 166 162 163 158 152 155 149 139 132 119 105 126 148 152 165 159 145 135 131 138 148 158 156 153 165 160 145 139 142 147 157 150 130 118 146 137 74 353 292 232 252 249 255 282 320 343 334 312 333 322 299
175 177 179 172 167 166 165 166 166 170 170 166 164 166 165 163 167 170 172 170 167 166 164 167 174 173 171 169 171 176 179 181 175 167 164 158 156 156 157 153 145 142 145 144 149 145 138 137 127 119 113 107 120 140 149 153 149 154 164 161 157 150 146 144 155 162 150 160 184 151 129 296 277 195 224 269 263 261 281 294 288 313 343 348 332
176 179 175 168 167 168 167 165 168 169 168 170 166 165 162 164 169 171 169 169 167 163 169 176 174 172 171 170 174 178 180 181 167 165 164 165 164 162 160 154 150 151 148 148 147 146 139 115 95 109 138 170 174 172 169 165 163 167 169 170 166 153 158 153 163 201 199 169 190 187 141 182 244 212 248 232 294 316 306 316 265 279 313 330 293
176 175 172 169 169 167 164 167 169 168 171 165 162 160 163 166 168 169 173 172 161 167 176 172 176 173 169 172 179 180 180 177 166 167 171 173 169 157 156 153 151 155 158 155 152 152 150 148 157 176 190 188 182 181 178 172 164 161 163 160 159 157 165 188 188 178 180 192 167 181 181 176 203 244 202 207 183 270 302 324 296 266 228 272 264
176 174 172 171 168 165 165 167 169 170 167 163 160 161 165 171 171 170 163 160 165 170 174 178 173 173 175 176 179 181 181 176 169 172 177 175 162 155 153 158 156 158 160 161 166 168 166 167 177 183 193 192 194 187 174 163 153 142 158 188 180 178 185 204 216 218 206 195 176 185 213 162 191 226 211 161 261 262 290 284 276 291 288 262 273
175 172 172 170 166 165 166 168 169 166 164 162 162 164 167 167 166 165 166 167 168 176 179 179 176 174 175 175 176 183 194 174 173 175 174 167 164 156 152 157 157 164 172 176 173 173 173 177 183 187 189 197 196 191 176 167 158 164 181 198 185 186 192 204 211 212 217 210 195 207 188 197 217 240 256 205 224 238 210 237 256 260 285 289 278
175 172 171 170 168 167 165 167 167 166 163 161 164 167 167 165 166 166 165 170 173 169 175 170 170 176 178 175 178 192 191 172 174 175 174 169 159 161 161 161 168 175 183 187 171 173 177 186 183 194 200 204 205 189 174 155 154 162 189 199 152 215 244 229 243 225 218 207 201 205 202 203 213 231 242 243 247 231 235 281 317 262 310 326 330
176 173 173 170 168 167 167 166 168 167 165 164 168 168 165 165 168 163 164 169 169 176 177 178 176 173 177 183 188 193 182 174 176 177 175 166 162 168 170 168 176 178 188 189 179 176 182 191 194 196 206 218 200 179 177 153 159 173 183 180 170 140 239 280 304 240 220 211 213 221 226 233 238 252 264 261 245 201 118 2 287 173 51 354 314
177 173 173 171 169 167 167 166 166 168 168 170 167 168 170 166 164 167 171 168 174 180 174 173 174 180 182 191 194 184 182 176 179 178 172 168 171 173 174 171 178 182 184 190 183 186 191 197 200 196 206 215 175 185 196 174 173 178 174 166 161 204 249 269 307 296 260 239 247 247 248 257 260 261 265 268 244 183 151 214 239 131 272 204 279
174 175 173 168 166 166 167 167 165 168 173 174 171 168 169 170 170 169 170 168 173 173 173 174 178 186 194 192 181 177 177 179 180 175 175 177 175 175 171 173 173 184 179 188 200 198 208 211 209 198 202 187 178 191 199 197 195 190 187 165 186 206 222 202 211 202 277 1 331 350 317 289 270 258 261 266 222 189 195 212 160 170 237 275 251
177 167 160 162 165 166 168 169 169 169 170 169 171 171 166 158 158 169 171 173 171 173 177 179 180 186 175 172 185 181 173 174 182 180 179 179 182 173 173 168 182 187 185 183 184 211 217 225 231 215 204 196 196 193 194 200 199 201 169 178 188 226 213 182 225 188 216 220 253 262 256 262 268 273 265 181 200 201 206 201 192 191 211 255 221
160 160 158 161 165 168 169 169 167 172 174 176 172 164 163 165 165 169 170 170 170 171 175 178 172 164 170 178 182 182 179 175 182 181 185 182 185 174 183 186 184 179 182 186 190 193 207 215 232 214 199 203 205 197 197 205 206 189 192 192 203 195 146 178 210 200 208 252 282 293 295 300 293 287 336 358 317 279 239 221 203 195 199 229 260
160 158 158 162 166 166 165 168 175 176 169 150 147 157 165 163 168 171 155 160 175 177 173 168 162 159 166 176 187 180 180 175 169 188 187 187 186 185 182 192 181 172 173 188 188 202 207 208 220 209 197 203 210 202 202 204 210 200 207 214 183 155 174 187 164 165 200 271 305 307 305 317 327 335 331 325 313 292 272 245 215 207 209 204 207
157 157 157 158 161 163 168 174 170 160 159 158 157 157 156 158 162 162 165 168 164 170 169 159 153 156 160 172 164 165 171 180 176 178 192 191 191 193 188 180 171 170 177 186 193 205 208 205 214 201 196 203 210 211 209 210 206 215 216 197 185 185 165 151 148 155 198 235 280 286 287 293 300 296 306 305 296 287 288 292 276 237 229 234 232
153 154 157 157 154 160 166 158 157 162 156 149 143 145 156 161 160 165 166 161 156 158 161 156 152 160 166 158 143 133 151 169 184 186 186 193 195 195 194 180 171 184 186 194 195 202 198 202 207 203 199 203 207 209 212 208 206 215 207 191 181 175 169 155 171 192 200 234 265 271 275 257 242 272 257 242 262 291 295 287 283 257 241 253 245
152 153 151 147 146 152 144 149 146 114 127 139 149 155 155 149 139 111 96 105 155 169 169 169 171 165 157 165 163 166 167 174 176 187 188 197 196 194 192 176 186 175 182 201 189 200 209 202 195 195 199 203 208 213 224 224 223 217 197 181 173 169 182 191 197 185 218 240 238 251 263 255 227 241 259 279 283 282 285 295 280 259 253 268 260
157 158 152 144 147 147 145 139 135 142 154 161 165 166 160 154 153 159 160 168 171 172 170 168 164 160 168 168 174 172 170 168 172 176 186 195 206 208 201 192 183 187 188 186 194 187 195 198 204 204 193 191 183 195 207 213 212 207 186 174 182 187 190 190 194 194 232 239 238 242 250 263 262 249 259 270 285 282 305 303 327 308 352 1 346
153 146 136 139 149 158 156 152 144 149 149 139 135 140 149 153 155 158 166 170 168 164 158 159 153 160 180 182 168 165 167 168 170 180 184 183 193 184 180 198 175 162 164 146 137 159 169 174 174 171 170 192 201 207 208 177 166 183 189 193 198 197 192 196 200 209 225 237 245 252 257 258 272 295 282 296 288 279 190 227 282 268 298 335 330
142 136 133 141 156 160 148 141 142 147 152 147 143 143 159 165 165 171 171 169 166 167 160 163 174 185 189 166 155 156 166 177 185 187 189 188 181 171 178 176 178 183 175 174 162 148 137 111 94 86 98 86 137 144 183 182 191 186 199 199 205 200 199 196 210 217 233 217 243 258 278 272 282 273 294 290 273 278 251 206 206 268 282 337 343
131 130 136 141 139 136 145 151 153 149 146 146 146 160 173 176 175 183 189 175 173 169 177 184 189 188 165 158 156 163 174 197 213 194 187 183 177 171 175 190 190 191 195 156 121 98 103 110 98 89 99 133 148 183 193 190 208 205 205 205 204 197 188 187 214 227 222 211 238 244 259 275 272 269 264 285 274 271 237 223 255 231 299 140 222
137 141 144 146 151 147 144 144 143 144 145 145 135 88 19 50 173 175 174 174 166 171 169 180 167 148 153 173 172 173 192 210 175 167 179 172 180 185 190 184 184 187 176 166 159 148 169 173 182 173 170 162 183 205 210 207 209 210 218 210 202 202 204 210 220 232 214 217 233 238 253 257 271 271 266 260 284 281 246 192 253 209 240 251 282
138 139 144 151 151 149 149 147 149 147 147 144 139 130 120 38 35 77 117 130 129 120 118 120 137 155 159 170 198 231 84 108 144 173 169 169 179 187 189 189 188 185 153 131 153 180 190 198 213 202 202 195 201 210 210 209 217 218 223 211 213 212 211 217 229 220 221 234 240 240 250 242 255 264 262 259 259 283 302 259 216 234 230 246 255
145 150 150 145 144 149 151 147 146 144 145 144 142 147 142 124 69 26 71 127 126 133 140 145 154 164 169 159 158 182 163 150 148 157 171 173 185 192 192 188 185 171 177 169 175 201 198 206 212 217 208 210 219 209 204 207 210 210 215 218 232 223 213 234 224 194 224 229 239 242 238 237 242 253 253 257 259 270 274 290 259 261 282 258 244
146 144 140 141 142 139 137 141 144 145 148 148 151 152 149 155 152 143 34 44 91 130 145 151 160 163 161 156 166 174 184 178 163 162 173 185 184 192 193 185 170 159 136 154 193 205 211 213 216 219 210 220 216 211 214 207 205 205 200 209 226 228 218 233 171 206 228 228 225 239 234 236 236 246 249 250 237 255 258 260 272 262 242 259 272
142 142 146 147 145 145 148 150 151 155 153 153 156 159 167 164 157 146 140 129 71 48 51 85 149 162 172 171 170 177 183 180 170 172 177 183 190 174 134 118 140 159 167 185 187 211 207 213 218 219 220 221 220 214 221 219 213 210 206 210 225 239 242 195 186 227 229 231 225 243 242 239 228 228 248 243 224 228 255 259 257 253 269 243 258
114 119 136 145 151 152 153 152 150 148 150 156 157 159 148 134 126 135 148 148 146 148 156 112 75 134 166 183 190 184 178 178 181 182 181 182 142 130 123 114 118 163 202 208 200 208 206 210 217 220 217 219 220 210 218 216 206 204 208 217 224 231 248 227 224 233 233 233 231 242 241 240 233 221 228 237 225 219 233 240 237 217 230 268 257
121 131 133 128 125 132 140 144 143 143 145 137 132 128 129 130 131 142 143 144 149 149 140 139 138 146 154 165 177 174 179 186 198 195 184 142 142 136 131 168 172 193 200 206 207 213 207 212 210 221 215 224 217 214 213 213 207 205 204 203 215 223 228 234 233 234 239 230 238 244 246 242 238 235 229 232 218 218 214 218 236 229 218 239 246
130 134 135 134 133 130 127 122 121 122 119 123 127 127 127 127 136 147 154 152 143 135 134 126 112 79 77 101 125 128 133 134 114 112 134 154 162 165 185 174 195 193 202 208 206 209 211 224 213 218 216 221 225 224 218 219 216 217 214 216 218 221 222 221 223 213 216 222 229 222 221 235 237 217 196 212 221 223 234 237 241 242 231 243 240
134 139 140 135 128 126 125 123 120 118 123 129 129 133 137 143 147 146 146 156 152 145 146 156 165 163 181 183 116 126 106 97 93 76 88 122 150 187 194 195 194 197 205 210 204 203 218 221 205 212 219 215 215 214 219 223 212 212 215 221 223 226 228 223 221 218 218 219 232 229 228 246 244 219 197 207 209 213 232 228 221 240 263 237 203
104 108 116 122 124 129 127 123 125 124 125 128 136 135 136 136 133 133 140 140 151 155 150 149 165 184 171 137 124 120 114 123 161 176 158 166 173 180 191 196 199 209 209 205 199 200 218 222 217 212 213 213 219 218 213 221 211 213 217 217 226 231 230 227 227 220 209 223 242 253 254 261 250 206 201 203 219 223 229 219 206 204 247 274 263
120 125 123 119 113 115 122 125 126 129 135 136 137 137 136 144 151 156 157 155 167 162 159 159 175 178 150 144 145 148 168 176 187 181 174 177 183 192 194 201 204 207 206 205 201 206 210 223 209 206 212 215 216 220 216 217 217 220 216 214 218 223 223 217 221 218 225 227 236 252 247 256 244 197 189 198 223 221 223 239 235 216 222 236 265
121 122 127 124 120 120 116 124 132 136 139 142 146 151 159 156 154 152 154 153 142 145 159 173 172 163 163 173 167 171 174 184 180 182 188 187 189 193 203 209 206 211 211 210 211 206 210 211 211 209 209 211 212 213 217 216 222 218 216 215 214 223 227 225 224 228 228 230 237 245 249 244 224 182 207 228 218 214 211 210 236 250 242 246 257
125 128 127 126 126 123 126 127 127 131 135 140 148 152 150 151 148 149 147 143 141 150 152 167 158 152 156 165 175 185 186 179 170 172 169 172 186 204 209 215 214 213 210 212 207 207 209 207 207 203 207 209 206 211 208 216 214 214 212 211 216 228 236 241 236 239 238 238 238 237 244 233 212 196 212 214 203 190 176 201 228 240 254 259 262
128 128 125 127 125 129 132 136 137 138 140 142 146 138 139 142 144 142 138 134 136 145 155 158 148 132 146 168 175 183 208 169 159 173 179 190 197 208 215 221 216 215 216 222 215 204 198 200 205 204 207 209 205 201 200 212 207 210 210 212 219 225 235 244 245 241 236 237 242 241 237 228 211 209 220 220 200 166 195 209 220 229 246 255 262
119 116 118 114 114 113 120 129 127 130 133 130 127 131 137 132 131 133 139 143 147 154 160 156 149 137 125 139 152 171 206 203 192 187 183 184 196 212 223 225 217 214 222 226 223 202 195 201 212 217 216 220 215 212 213 214 203 204 209 213 222 228 233 237 237 237 224 228 239 239 229 221 217 217 217 191 155 188 222 216 231 244 250 259 254
122 123 120 114 115 118 120 122 127 128 127 122 123 128 134 133 135 138 141 146 143 141 145 134 129 132 136 160 179 198 208 207 192 181 187 194 204 216 221 216 209 211 219 229 223 201 204 209 213 215 224 229 220 217 220 219 207 209 204 201 209 220 226 228 231 227 208 212 227 227 231 223 222 217 218 197 185 193 218 228 226 237 249 256 245
117 119 117 118 116 117 121 123 125 128 135 138 139 136 133 127 134 142 147 146 146 151 151 148 151 162 172 182 193 203 211 201 202 202 199 200 208 221 218 212 203 206 214 220 212 210 215 212 212 218 226 231 226 223 223 222 216 212 208 201 209 219 223 224 215 200 203 206 213 221 229 226 235 227 223 211 196 195 216 232 226 222 229 251 252
111 110 113 115 119 118 118 125 124 127 125 128 131 134 139 139 138 139 147 154 154 149 147 156 159 176 182 186 192 206 211 212 210 200 208 210 213 219 220 212 208 218 222 215 209 214 218 220 219 221 228 233 232 233 229 224 221 217 210 210 215 224 228 219 212 211 215 213 211 217 221 221 231 234 230 220 209 207 210 225 226 236 235 231 243
114 115 117 121 122 124 129 132 131 134 135 141 140 139 138 137 136 146 151 155 153 156 157 160 172 178 178 200 204 207 212 218 219 216 216 217 219 212 206 208 215 221 218 218 218 216 217 221 222 222 226 229 229 234 237 232 226 221 218 213 215 217 224 218 218 224 225 215 204 211 215 224 234 233 225 207 219 212 208 231 226 234 238 238 236
125 125 128 131 135 140 145 143 144 147 143 136 124 122 124 129 146 152 160 172 175 174 175 179 180 176 189 201 200 208 210 217 226 232 228 230 223 217 211 216 220 218 214 228 227 220 222 223 224 223 224 224 223 227 230 230 229 227 226 223 224 226 229 228 229 235 233 220 216 210 211 216 225 232 225 217 223 213 217 227 228 236 234 230 233
125 127 131 132 132 132 124 121 125 126 125 130 132 132 132 137 146 167 184 191 191 185 196 186 183 185 188 187 194 204 202 211 225 230 231 227 218 215 213 221 220 220 217 228 230 224 223 222 223 224 225 226 225 226 226 227 229 227 228 230 231 231 234 235 234 241 238 227 219 211 209 217 224 227 219 211 209 209 220 229 226 221 226 233 232
127 126 126 129 130 130 131 133 133 135 132 135 137 142 147 163 176 182 191 199 208 209 205 195 190 179 194 202 195 191 200 213 215 218 215 213 207 205 211 217 224 225 228 229 234 228 222 219 221 222 224 224 224 224 224 227 229 228 228 231 232 233 235 234 238 244 235 227 218 210 205 212 211 218 218 213 205 210 222 222 221 221 227 232 239